23 de maio de 2022

Tempo Código Clima Temp. Visão Nuvens Vento METAR/SPECI
02:00
V
7 °C 14 km 7.100 ft 320°   320° 6 kt METAR CYKF 230600Z AUTO 32006KT 9SM OVC071 07/03 A3031 RMK SLP270
01:00
V
6 °C 14 km 6.600 ft 300°   300° 5 kt METAR CYKF 230500Z AUTO 30005KT 9SM BKN066 06/04 A3030 RMK SLP268
00:00
V
7 °C 14 km - 290°   290° 4 kt METAR CYKF 230400Z AUTO 29004KT 9SM CLR 07/05 A3027 RMK SLP260

22 de maio de 2022

Tempo Código Clima Temp. Visão Nuvens Vento METAR/SPECI
23:00
V
8 °C 14 km - 300°   300° 6 kt METAR CYKF 230300Z AUTO 30006KT 9SM CLR 08/06 A3027 RMK SLP256
22:00
V
8 °C 14 km 24.000 ft 320°   320° 4 kt METAR CYKF 230200Z AUTO 32004KT 9SM OVC240 08/06 A3025 RMK SLP251
21:00
V
10 °C 14 km - 320°   320° 6 kt METAR CYKF 230100Z AUTO 32006KT 9SM SCT240 10/07 A3023 RMK SLP242
20:00
V
11 °C 14 km - 320°   320° 7 kt METAR CYKF 230000Z AUTO 32007KT 9SM CLR 11/06 A3022 RMK SLP238
19:00
V
11 °C 14 km - 310°   310° 7 15 kt METAR CYKF 222300Z AUTO 31007G15KT 9SM FEW022 11/07 A3021 RMK SLP235
18:30
V
12 °C 14 km - 310°   310° 12 18 kt METAR CYKF 222230Z AUTO 31012G18KT 9SM SCT022 12/07 A3020 RMK SLP233
18:19
M
12 °C 14 km 2.200 ft 310°   310° 12 18 kt METAR CYKF 222219Z AUTO 31012G18KT 9SM BKN022 12/08 A3020 RMK SLP232
18:14
V
12 °C 14 km - 320°   320° 13 18 kt METAR CYKF 222214Z AUTO 32013G18KT 9SM SCT022 12/07 A3020 RMK SLP231
18:00
M
13 °C 14 km 2.400 ft 300°   300° 13 18 kt METAR CYKF 222200Z AUTO 30013G18KT 9SM BKN024 13/08 A3019 RMK SLP227
17:00
V
14 °C 14 km - 300°   300° 11 17 kt METAR CYKF 222100Z AUTO 30011G17KT 9SM SCT029 14/09 A3016 RMK SLP217
16:00
V
15 °C 14 km 3.700 ft 300°   300° 12 17 kt METAR CYKF 222000Z AUTO 30012G17KT 9SM FEW030 BKN037 OVC044 15/09 A3014 RMK SLP210 DENSITY ALT 1100FT
15:00
M
14 °C 14 km 2.800 ft 290°   290° 9 kt METAR CYKF 221900Z AUTO 29009KT 9SM FEW022 BKN028 BKN033 OVC130 14/10 A3013 RMK SLP208
14:41
M
13 °C 14 km 2.600 ft 270°   270° 7 kt METAR CYKF 221841Z AUTO 27007KT 9SM SCT019 OVC026 13/10 A3013 RMK SLP205
14:08
M
13 °C 14 km 1.900 ft 300°   300° 6 kt METAR CYKF 221808Z AUTO 30006KT 9SM BKN019 OVC091 13/09 A3012 RMK SLP205
14:00
V
13 °C 14 km 9.600 ft 280°   280° 6 kt METAR CYKF 221800Z AUTO 28006KT 9SM FEW016 OVC096 13/10 A3012 RMK SLP203
13:00
V
12 °C 14 km 8.100 ft 320°   320° 10 kt METAR CYKF 221700Z AUTO 32010KT 9SM FEW016 OVC081 12/09 A3009 RMK SLP194
12:49
V
12 °C 14 km 8.100 ft 330°   330° 10 kt METAR CYKF 221649Z AUTO 33010KT 9SM SCT014 OVC081 12/10 A3009 RMK SLP193
12:20
M
11 °C 14 km 1.200 ft 320°   320° 10 kt METAR CYKF 221620Z AUTO 32010KT 9SM BKN012 BKN055 OVC068 11/10 A3008 RMK SLP191
12:00
V
11 °C 14 km 4.700 ft 310°   310° 8 kt METAR CYKF 221600Z AUTO 31008KT 9SM FEW012 OVC047 11/10 A3007 RMK SLP186
11:39
V
11 °C 14 km 4.100 ft 330°   330° 9 kt METAR CYKF 221539Z AUTO 33009KT 9SM SCT013 OVC041 11/10 A3006 RMK SLP186
11:11
M
11 °C 14 km 1.100 ft 350°   350° 6 kt METAR CYKF 221511Z AUTO 35006KT 9SM BKN011 BKN016 OVC037 11/10 A3004 RMK SLP179
11:00
I
11 °C 10 km 900 ft 330°   330° 8 18 kt METAR CYKF 221500Z AUTO 33008G18KT 6SM BR BKN009 OVC013 11/10 A3005 RMK SLP180
10:48
I
11 °C 14 km 900 ft 320°   320° 12 17 kt METAR CYKF 221448Z AUTO 32012G17KT 9SM OVC009 11/11 A3004 RMK PRESRR SLP179
10:21
I
12 °C 14 km 700 ft 330°   330° 13 kt METAR CYKF 221421Z AUTO 33013KT 9SM -RA BKN007 BKN018 OVC024 12/11 A3001 RMK SLP167
10:11
I
12 °C 14 km 700 ft 330°   330° 12 kt METAR CYKF 221411Z AUTO 33012KT 9SM BKN007 BKN016 OVC024 12/12 A3001 RMK SLP166
10:00
I
12 °C 10 km 500 ft 320°   320° 13 18 kt METAR CYKF 221400Z AUTO 32013G18KT 6SM BR BKN005 BKN016 OVC022 12/12 A3000 RMK SLP163
09:54
I
12 °C 4,8 km 500 ft 320°   320° 12 18 kt METAR CYKF 221354Z AUTO 32012G18KT 3SM BR BKN005 OVC016 12/12 A3000 RMK SLP165
09:32
I
12 °C 2,8 km 500 ft 310°   310° 11 23 kt METAR CYKF 221332Z AUTO 31011G23KT 1 3/4SM -RA BR OVC005 12/12 A2999 RMK PRESRR SLP159
09:30
I
12 °C 2,8 km 500 ft 310°   310° 14 26 kt METAR CYKF 221330Z AUTO 31014G26KT 1 3/4SM BR OVC005 12/12 A2999 RMK PRESRR SLP159
09:28
I
12 °C 3,2 km 500 ft 310°   310° 16 26 kt METAR CYKF 221328Z AUTO 31016G26KT 2SM BR OVC005 12/12 A2998 RMK PRESRR SLP158
09:24
I
12 °C 4,8 km 500 ft 310°   310° 17 26 kt METAR CYKF 221324Z AUTO 31017G26KT 3SM -RA BR OVC005 12/12 A2998 RMK PRESRR SLP156
09:16
L
14 °C 2,4 km 300 ft 290°   290° 20 25 kt METAR CYKF 221316Z AUTO 29020G25KT 1 1/2SM -RA BR OVC003 14/14 A2997 RMK PRESRR SLP151 DENSITY ALT 1100FT
09:14
L
14 °C 2,0 km 300 ft 290°   290° 18 24 kt METAR CYKF 221314Z AUTO 29018G24KT 1 1/4SM BR BKN003 OVC008 14/14 A2996 RMK PRESRR SLP150 DENSITY ALT 1200FT
09:00
L
17 °C 2,8 km 300 ft 280°   280° 13 kt METAR CYKF 221300Z AUTO 28013KT 250V310 1 3/4SM -RA BR OVC003 17/17 A2995 RMK VIS VRB 1-3 SLP142 DENSITY ALT 1500FT
08:59
L
17 °C 2,8 km 300 ft 270°   270° 12 kt METAR CYKF 221259Z AUTO 27012KT 1 3/4SM -RA BR OVC003 17/17 A2995 RMK VIS VRB 1-3 SLP142 DENSITY ALT 1500FT
08:38
L
16 °C 4,8 km 300 ft 240°   240° 6 kt METAR CYKF 221238Z AUTO 24006KT 160V250 3SM BR OVC003 16/16 A2994 RMK SLP140 DENSITY ALT 1500FT
08:29
L
16 °C 3,2 km 300 ft 210°   210° 3 kt METAR CYKF 221229Z AUTO 21003KT 160V260 2SM BR OVC003 16/16 A2994 RMK SLP141 DENSITY ALT 1400FT
08:13
L
15 °C 2,4 km 300 ft 190°   190° 3 kt METAR CYKF 221213Z AUTO 19003KT 1 1/2SM BR OVC003 15/15 A2995 RMK SLP143 DENSITY ALT 1300FT
08:02
L
14 °C 2,0 km 300 ft Var   000° 0 kt METAR CYKF 221202Z AUTO 00000KT 1 1/4SM -RA BR OVC003 14/14 A2995 RMK SLP144 DENSITY ALT 1200FT
08:00
L
15 °C 2,0 km 300 ft Var   000° 0 kt METAR CYKF 221200Z AUTO 00000KT 1 1/4SM BR OVC003 15/15 A2995 RMK SLP142 DENSITY ALT 1300FT
07:00
L
14 °C 1,6 km 300 ft 100°   100° 2 kt METAR CYKF 221100Z AUTO 10002KT 1SM BR OVC003 14/14 A2996 RMK SLP145 DENSITY ALT 1200FT
06:27
I
14 °C 2,8 km 500 ft 090°   090° 4 kt METAR CYKF 221027Z AUTO 09004KT 1 3/4SM BR OVC005 14/14 A2995 RMK SLP146 DENSITY ALT 1200FT
06:23
I
14 °C 3,6 km 500 ft 100°   100° 4 kt METAR CYKF 221023Z AUTO 10004KT 2 1/4SM BR OVC005 14/14 A2995 RMK SLP146 DENSITY ALT 1200FT
06:02
I
14 °C 4,8 km 500 ft 110°   110° 4 kt METAR CYKF 221002Z AUTO 11004KT 3SM BR OVC005 14/14 A2995 RMK SLP146 DENSITY ALT 1200FT
05:26
I
15 °C 8,0 km 900 ft 110°   110° 6 kt METAR CYKF 220926Z AUTO 11006KT 5SM BR OVC009 15/14 A2994 RMK SLP142 DENSITY ALT 1300FT
05:00
I
15 °C 14 km 900 ft 100°   100° 6 kt METAR CYKF 220900Z AUTO 10006KT 9SM OVC009 15/15 A2994 RMK SLP140 DENSITY ALT 1300FT
04:00
M
16 °C 14 km 1.200 ft 100°   100° 5 kt METAR CYKF 220800Z AUTO 10005KT 9SM OVC012 16/16 A2995 RMK SLP143 DENSITY ALT 1400FT
03:02
M
15 °C 14 km 1.600 ft 100°   100° 3 kt METAR CYKF 220702Z AUTO 10003KT 9SM BKN016 OVC032 15/15 A2998 RMK SLP154 DENSITY ALT 1300FT
03:00
V
15 °C 14 km 3.200 ft 100°   100° 3 kt METAR CYKF 220700Z AUTO 10003KT 9SM SCT016 OVC032 15/15 A2998 RMK SLP151 DENSITY ALT 1300FT
02:48
V
15 °C 14 km 3.000 ft 070°   070° 3 kt METAR CYKF 220648Z AUTO 07003KT 9SM FEW008 SCT016 OVC030 15/15 A2998 RMK SLP154 DENSITY ALT 1200FT
02:35
M
14 °C 11 km 1.800 ft Var   Var 2 kt METAR CYKF 220635Z AUTO VRB02KT 7SM FEW008 BKN018 OVC032 14/14 A2999 RMK SLP157 DENSITY ALT 1200FT
02:31
V
14 °C 14 km 3.200 ft Var   000° 0 kt METAR CYKF 220631Z AUTO 00000KT 9SM FEW008 SCT020 BKN032 14/14 A2999 RMK SLP157 DENSITY ALT 1100FT
02:19
M
14 °C 11 km 2.000 ft Var   000° 0 kt METAR CYKF 220619Z AUTO 00000KT 7SM BKN020 14/14 A2999 RMK SLP158 DENSITY ALT 1200FT
02:00
V
14 °C 14 km - 070°   070° 2 kt METAR CYKF 220600Z AUTO 07002KT 9SM FEW040 14/14 A2998 RMK SLP153 DENSITY ALT 1200FT
01:00
V
14 °C 14 km - Var   000° 0 kt METAR CYKF 220500Z AUTO 00000KT 9SM CLR 14/14 A3001 RMK SLP163 DENSITY ALT 1200FT
00:00
V
15 °C 11 km 12.000 ft 340°   340° 3 kt METAR CYKF 220400Z AUTO 34003KT 310V030 7SM SCT066 BKN120 OVC210 15/15 A3001 RMK SLP160 DENSITY ALT 1200FT

21 de maio de 2022

Tempo Código Clima Temp. Visão Nuvens Vento METAR/SPECI
23:00
V
16 °C 14 km 6.600 ft Var   Var 2 kt METAR CYKF 220300Z AUTO VRB02KT 9SM OVC066 16/16 A3002 RMK SLP164 DENSITY ALT 1300FT
22:02
V
15 °C 14 km 13.000 ft Var   000° 0 kt METAR CYKF 220202Z AUTO 00000KT 9SM SCT066 SCT089 BKN130 OVC180 15/15 A3004 RMK SLP175 DENSITY ALT 1200FT
22:00
V
15 °C 14 km 13.000 ft Var   000° 0 kt METAR CYKF 220200Z AUTO 00000KT 9SM -RA SCT066 SCT100 BKN130 OVC180 15/15 A3004 RMK SLP172 DENSITY ALT 1200FT
21:01
V
17 °C 14 km 11.000 ft Var   Var 2 kt METAR CYKF 220101Z AUTO VRB02KT 9SM -RA BKN110 OVC140 17/14 A2999 RMK SLP158 DENSITY ALT 1500FT
21:00
V
17 °C 14 km 11.000 ft 310°   310° 3 kt METAR CYKF 220100Z AUTO 31003KT 300V010 9SM BKN110 OVC140 17/14 A2999 RMK SLP156 DENSITY ALT 1500FT
20:00
V
18 °C 13 km - 310°   310° 4 kt METAR CYKF 220000Z AUTO 31004KT 8SM FEW110 SCT250 18/13 A2998 RMK SLP153 DENSITY ALT 1600FT
19:00
V
19 °C 14 km - 310°   310° 10 kt METAR CYKF 212300Z AUTO 31010KT 9SM SCT110 19/14 A2996 RMK SLP146 DENSITY ALT 1800FT
18:00
V
20 °C 14 km - 300°   300° 13 kt METAR CYKF 212200Z AUTO 30013KT 9SM FEW023 20/15 A2998 RMK SLP152 DENSITY ALT 1900FT
17:27
V
21 °C 14 km 12.000 ft 280°   280° 14 kt METAR CYKF 212127Z AUTO 28014KT 9SM SCT023 BKN120 BKN140 21/16 A3000 RMK SLP159 DENSITY ALT 1900FT
17:03
M
20 °C 14 km 2.300 ft 280°   280° 13 18 kt METAR CYKF 212103Z AUTO 28013G18KT 9SM BKN023 OVC120 20/16 A3001 RMK PRESRR SLP160 DENSITY ALT 1800FT
16:43
V
21 °C 14 km 12.000 ft 280°   280° 6 kt METAR CYKF 212043Z AUTO 28006KT 9SM SCT023 SCT029 OVC120 21/16 A2996 RMK PRESFR SLP145 DENSITY ALT 2000FT
16:38
M
21 °C 14 km 2.300 ft 310°   310° 8 15 kt METAR CYKF 212038Z AUTO 31008G15KT 9SM BKN023 BKN029 OVC120 21/17 A2997 RMK PRESFR SLP146 DENSITY ALT 2000FT
16:00
V
22 °C 14 km 4.100 ft 290°   290° 15 24 kt METAR CYKF 212000Z AUTO 29015G24KT 9SM FEW025 SCT034 BKN041 22/17 A2998 RMK SLP151 DENSITY ALT 2100FT
15:00
V
23 °C 14 km 13.000 ft 240°   240° 21 31 kt METAR CYKF 211900Z AUTO 24021G31KT 9SM BKN130 23/17 A2996 RMK PRESRR SLP141 DENSITY ALT 2300FT
14:42
V
23 °C 14 km - 230°   230° 20 kt METAR CYKF 211842Z AUTO 23020KT 9SM CLR 23/17 A2994 RMK PRESRR SLP135 DENSITY ALT 2200FT
14:00
V
19 °C 14 km 23.000 ft 190°   190° 8 kt METAR CYKF 211800Z AUTO 19008KT 9SM FEW190 SCT210 BKN230 19/19 A2989 RMK SLP121 DENSITY ALT 1900FT
13:25
V
18 °C 14 km 14.000 ft 190°   190° 7 kt METAR CYKF 211725Z AUTO 19007KT 170V240 9SM FEW110 OVC140 18/17 A2988 RMK PRESRR SLP118 DENSITY ALT 1700FT
13:01
V
17 °C 14 km 10.000 ft Var   Var 9 kt METAR CYKF 211701Z AUTO VRB09KT 9SM -RA BKN100 OVC120 17/17 A2984 RMK LTNG DIST ALQDS PRESFR SLP105 DENSITY ALT 1700FT
13:00
V
17 °C 14 km 10.000 ft Var   Var 7 kt METAR CYKF 211700Z AUTO VRB07KT 9SM -RA VCTS FEW066 BKN100 OVC120 17/17 A2985 RMK LTNG DIST ALQDS PRESFR SLP108 DENSITY ALT 1700FT
12:54
V
17 °C 14 km 10.000 ft 080°   080° 5 kt METAR CYKF 211654Z AUTO 08005KT 320V120 9SM -RA VCTS FEW055 BKN100 OVC120 17/17 A2989 RMK LTNG DIST ALQDS PRESFR SLP122 DENSITY ALT 1600FT
12:35
V
17 °C 10 km 4.400 ft 290°   290° 15 33 kt METAR CYKF 211635Z AUTO 29015G33KT 6SM TSRA BR FEW035 BKN044 BKN071 OVC093 17/17 A2997 RMK LTNG DIST ALQDS PRESFR SLP149 DENSITY ALT 1500FT
12:32
I
17 °C 4,8 km 4.400 ft 280°   280° 18 39 kt METAR CYKF 211632Z AUTO 28018G39KT 3SM TSRA BR SCT035 BKN044 OVC071 17/17 A2998 RMK LTNG DIST ALQDS SLP153 DENSITY ALT 1500FT
12:23
L
18 °C 1,2 km 3.600 ft 280°   280° 32 71 kt METAR CYKF 211623Z AUTO 28032G71KT 220V290 3/4SM +TSRA BR SQ SCT022 BKN036 BKN046 OVC086 18/17 A3000 RMK LTNG DIST ALQDS PRESRR SLP161 DENSITY ALT 1500FT
12:19
I
22 °C 2,4 km 3.600 ft Var   000° 0 kt METAR CYKF 211619Z AUTO /////KT 1 1/2SM -TSRA BKN036 BKN046 BKN086 22/17 A3001 RMK LTNG DIST ALQDS PRESRR WIND MISG SLP161 DENSITY ALT 2100FT
12:14
V
25 °C 14 km 3.600 ft 240°   240° 21 27 kt METAR CYKF 211614Z AUTO 24021G27KT 9SM -TSRA BKN036 BKN046 BKN086 25/18 A2994 RMK LTNG DIST ALQDS PRESRR SLP135 DENSITY ALT 2500FT
12:01
V
26 °C 14 km 9.100 ft 230°   230° 15 20 kt METAR CYKF 211601Z AUTO 23015G20KT 9SM VCTS FEW038 BKN091 BKN110 BKN130 26/18 A2990 RMK LTNG DIST SW W NW SLP122 DENSITY ALT 2600FT
12:00
V
26 °C 14 km 9.100 ft 230°   230° 15 21 kt METAR CYKF 211600Z AUTO 23015G21KT 9SM FEW038 BKN091 BKN110 BKN130 26/18 A2990 RMK LTNG DIST SW W NW SLP122 DENSITY ALT 2600FT
11:00
V
26 °C 14 km - 230°   230° 16 22 kt METAR CYKF 211500Z AUTO 23016G22KT 9SM CLR 26/19 A2989 RMK SLP116 DENSITY ALT 2700FT
10:00
V
25 °C 14 km - 230°   230° 17 23 kt METAR CYKF 211400Z AUTO 23017G23KT 9SM CLR 25/18 A2987 RMK SLP110 DENSITY ALT 2500FT
09:00
V
22 °C 14 km - 210°   210° 9 15 kt METAR CYKF 211300Z AUTO 21009G15KT 9SM CLR 22/19 A2986 RMK SLP108 DENSITY ALT 2300FT
08:00
V
21 °C 14 km - 230°   230° 9 kt METAR CYKF 211200Z AUTO 23009KT 9SM FEW170 21/18 A2985 RMK SLP106 DENSITY ALT 2100FT
07:00
V
21 °C 14 km 20.000 ft 230°   230° 7 kt METAR CYKF 211100Z AUTO 23007KT 9SM FEW091 BKN200 21/17 A2983 RMK SLP097 DENSITY ALT 2200FT
06:00
V
21 °C 14 km 19.000 ft 220°   220° 12 20 kt METAR CYKF 211000Z AUTO 22012G20KT 9SM SCT160 BKN190 BKN210 21/17 A2981 RMK SLP091 DENSITY ALT 2200FT
05:00
V
21 °C 14 km - 220°   220° 13 kt METAR CYKF 210900Z AUTO 22013KT 9SM CLR 21/17 A2979 RMK SLP085 DENSITY ALT 2200FT
04:00
V
22 °C 14 km - 210°   210° 13 20 kt METAR CYKF 210800Z AUTO 21013G20KT 9SM FEW055 22/17 A2976 RMK SLP074 DENSITY ALT 2300FT
03:00
V
22 °C 14 km - 220°   220° 12 20 kt METAR CYKF 210700Z AUTO 22012G20KT 9SM CLR 22/16 A2974 RMK SLP067 DENSITY ALT 2300FT
02:00
V
22 °C 14 km - 220°   220° 12 kt METAR CYKF 210600Z AUTO 22012KT 9SM CLR 22/16 A2972 RMK SLP061 DENSITY ALT 2400FT
01:00
V
21 °C 14 km - 200°   200° 8 kt METAR CYKF 210500Z AUTO 20008KT 9SM CLR 21/17 A2972 RMK SLP063 DENSITY ALT 2300FT
Dados mais antigos

Baixe nosso aplicativo

Fácil acesso a todas as condições meteorológicas da aviação no seu celular e no seu tablet.
Com muitos recursos não disponíveis no site, como suporte offline e uma lista pessoal de aeroportos.

Nós e terceiros acompanhamos seu comportamento na internet em nosso site com cookies. Se você continuar, nós assumimos que você concorda com nossa política de cookies. Saiba mais